SCP
0 1 1 1 0 0 0 0 0 0 0 0 0 0 0 0 0 0 0 0 0 0 0 0 0 0 0 -0 -0 -0 0 0 0 0 0 0 0 0 0 0 0 0 0
1 1 1 1 0 0 0 0 0 0 0 0 0 0 0 0 0 0 0 0 0 0 0 0 0 -0 -0 -0 -0 -0 -0 -0 0 0 0 0 0 0 0 0 0 0 0
1 1 1 1 0 0 0 0 0 0 0 0 0 0 0 0 0 0 0 0 0 0 0 0 -0 -0 -0 -0 -0 -0 -0 -0 -0 0 0 -0 -0 0 0 0 0 0 0
1 1 1 1 0 0 0 0 0 0 0 0 0 0 0 0 0 0 0 0 0 0 0 -0 -0 -0 -0 -0 -0 -0 -0 -0 -0 -0 -0 -0 0 0 0 0 0 0 0
1 1 1 1 0 0 0 0 0 0 0 0 0 0 0 0 0 0 0 0 0 -0 -0 -0 -0 -0 -0 -0 -0 -0 -0 -0 -0 -0 -0 -0 0 0 0 0 0 0 0
1 1 1 1 0 0 0 0 0 0 0 0 0 0 0 0 0 0 0 -0 -0 -0 -0 -0 -0 -0 -0 -0 -0 -0 -0 -0 -0 -0 -0 -0 0 0 0 0 0 0 0
1 1 1 1 0 0 0 0 0 0 0 0 0 0 0 0 0 -0 -0 -0 -0 -0 -0 -0 -0 -0 -0 -0 -0 -0 -0 -0 -0 -0 -0 -0 0 0 0 0 0 0 0
1 1 1 1 0 0 0 0 0 0 0 -0 -0 -0 -0 -0 -0 -0 -0 -0 -0 -0 -0 -0 -0 -0 -0 -0 -0 -0 -0 -0 0 0 -0 0 0 0 0 0 0 0 0
1 1 1 0 0 0 0 0 0 0 -0 -0 -0 -0 -0 -0 -0 -0 -0 -0 -0 -0 -0 -0 -0 -0 -0 -0 0 0 0 0 0 0 0 0 0 0 0 0 0 0 0
1 1 1 0 0 0 0 0 0 -0 -0 -0 -0 -0 -0 -0 -0 -0 -0 -0 -0 -0 -0 -0 -0 0 0 0 0 0 0 0 0 0 0 0 0 0 0 0 0 0 0
1 1 0 0 0 0 0 0 0 -0 -0 -0 -0 -0 -0 -0 -0 -0 -0 -0 -0 -0 -0 -0 0 0 0 0 0 0 0 0 0 0 0 0 0 0 0 0 0 0 0
1 1 0 0 0 0 0 0 0 -0 -0 -0 -0 -0 -0 -0 -0 -0 -0 -0 -0 -0 0 0 0 0 0 0 0 0 0 0 0 0 0 0 0 0 0 0 0 0 0
1 1 0 0 0 0 0 0 0 -0 -0 -0 -0 -0 -0 -0 -0 -0 -0 -0 -0 0 0 0 0 0 0 0 0 0 0 0 0 0 0 0 0 0 0 0 0 0 0
1 1 0 0 0 0 0 0 0 -0 -0 -0 -0 -0 -0 -0 -0 0 -0 -0 0 0 0 0 0 0 0 0 0 0 0 0 0 0 0 0 0 0 0 0 0 0 0
1 1 0 0 0 0 0 0 0 0 -0 -0 -0 0 0 0 0 0 0 0 0 0 0 0 0 0 0 0 0 0 0 0 0 0 0 0 0 0 0 0 0 0 0
1 1 1 0 0 0 0 0 0 0 0 0 0 0 0 0 0 0 0 0 0 0 0 0 0 0 0 0 0 0 0 0 0 0 0 0 0 0 0 0 0 0 0
1 1 1 0 0 0 0 0 0 0 0 0 0 0 0 0 0 0 0 0 0 0 0 0 0 0 0 0 0 0 0 0 0 0 0 0 0 0 0 0 0 0 0
1 1 1 0 0 0 0 0 0 0 0 0 0 0 0 0 0 0 0 0 0 0 0 0 0 0 0 0 0 0 0 0 0 0 0 0 0 0 0 0 0 0 0
0 0 1 1 0 0 0 0 0 0 0 0 0 0 0 0 0 0 0 0 0 0 0 0 0 0 0 0 0 0 0 0 0 0 0 0 0 0 0 0 0 0 0
-0 0 1 1 0 0 0 0 0 0 0 0 0 0 0 0 0 0 0 0 0 0 0 0 0 0 0 0 0 0 0 0 0 0 0 0 0 0 0 0 0 0 0
-0 0 1 1 1 0 0 0 0 0 0 0 0 0 0 0 0 0 0 0 0 0 0 0 0 0 0 0 0 0 0 0 0 0 0 0 0 0 0 0 0 0 0
0 0 0 1 1 1 0 0 0 0 0 0 0 0 0 0 0 0 0 0 0 0 0 0 0 0 0 0 0 0 0 0 0 0 0 0 0 0 0 0 0 0 0
0 0 0 1 1 0 0 0 0 -0 0 0 0 0 0 0 0 0 0 0 0 0 0 0 0 0 0 0 0 0 0 0 0 0 0 0 0 0 0 0 0 0 0
0 0 0 0 0 0 0 0 0 -0 -0 0 0 0 0 0 0 0 0 0 0 0 0 0 0 0 0 0 0 0 0 0 0 0 0 0 0 0 0 0 0 0 0
0 0 0 0 0 0 0 0 0 0 0 0 0 0 0 0 0 0 0 0 0 0 0 0 0 0 0 0 0 0 0 0 0 0 0 0 0 0 0 0 0 0 0
0 0 0 0 0 0 0 0 0 0 0 0 0 0 0 0 0 0 0 0 0 0 0 0 0 0 0 0 0 0 0 0 0 0 0 0 0 0 0 0 0 0 0
Wind_Speed
8 11 19 19 18 17 16 15 14 13 13 15 17 18 19 19 19 19 18 18 18 17 18 18 18 17 17 17 17 16 16 16 16 15 14 14 15 15 15 14 12 8 14
12 13 19 19 18 17 16 15 14 13 13 14 17 18 18 19 19 18 18 18 18 18 18 18 17 17 16 15 15 15 14 14 14 14 13 11 12 14 14 13 12 8 13
15 13 16 19 18 17 17 16 15 14 13 14 16 18 18 19 18 18 18 17 17 17 17 17 16 16 15 13 13 13 13 13 13 13 11 6 7 13 13 12 12 13 12
14 12 13 19 19 18 17 16 15 14 14 15 16 17 18 18 18 18 17 17 17 16 16 16 15 14 13 12 12 12 12 12 11 10 6 5 5 11 12 12 12 12 12
12 11 14 19 19 18 17 16 16 15 15 15 16 17 18 18 17 17 17 16 16 15 15 15 14 13 12 12 12 12 11 11 11 8 5 5 4 10 11 11 11 11 11
10 10 14 18 18 17 17 16 16 15 15 16 16 17 17 17 17 16 16 15 15 14 14 13 12 12 11 11 11 11 11 10 8 5 4 4 3 9 10 10 10 10 10
11 10 13 18 18 17 16 16 16 16 15 16 16 16 17 17 16 15 15 14 14 13 13 12 11 11 11 11 11 10 9 8 5 4 3 3 3 9 9 9 9 9 10
11 10 12 17 16 16 15 16 16 16 16 15 16 16 16 16 15 15 14 13 13 12 12 11 10 10 10 10 9 8 7 5 4 3 2 2 3 6 7 8 8 8 9
10 10 9 9 11 13 13 14 15 15 15 14 14 14 14 14 14 14 13 12 11 11 10 9 9 8 8 8 7 7 6 5 3 1 1 1 1 3 5 5 6 6 7
9 9 9 8 7 7 8 12 13 13 13 12 12 12 11 11 11 11 10 10 10 9 8 7 7 6 6 6 6 5 5 4 1 0 1 2 2 0 2 2 3 4 4
10 9 9 8 7 7 6 9 10 12 12 11 9 11 9 5 5 6 6 7 7 7 6 5 5 4 5 5 5 5 4 1 0 1 1 4 4 3 1 1 1 1 2
12 10 9 9 8 7 6 5 5 5 6 6 5 6 4 4 3 4 5 6 5 5 3 3 2 3 3 2 3 3 1 1 0 1 2 6 6 5 4 3 3 2 1
13 11 10 9 9 8 5 5 4 4 4 5 6 6 4 4 3 3 2 2 2 2 1 1 2 2 1 1 1 1 1 1 1 2 3 7 7 7 7 6 6 5 5
13 12 10 10 9 8 6 5 5 4 4 4 5 6 4 3 3 3 2 2 1 1 1 1 0 0 1 1 1 2 2 1 2 2 3 7 8 9 9 8 7 7 7
13 13 12 11 10 8 7 5 6 5 5 5 5 5 5 4 4 3 2 2 2 2 2 2 1 1 2 2 2 2 3 3 3 3 3 7 8 9 10 10 9 9 8
13 13 12 12 11 9 7 6 6 6 6 5 5 6 6 4 4 4 3 3 3 3 3 2 2 2 2 2 3 3 3 3 3 4 4 5 7 8 9 10 10 10 9
13 13 13 13 11 10 9 8 6 5 6 6 6 6 7 6 5 5 4 4 4 3 3 2 2 1 2 2 3 3 3 3 4 4 4 3 4 6 8 9 10 9 8
11 11 12 11 11 10 9 8 5 5 6 6 5 6 7 7 6 5 4 4 4 3 3 3 2 2 2 2 2 2 2 3 4 4 4 4 3 3 4 7 8 8 7
10 11 11 10 11 10 9 7 6 5 6 5 5 5 7 8 7 6 5 4 4 3 3 3 2 2 2 2 2 3 3 3 4 3 4 4 3 3 3 4 5 4 3
8 9 11 10 10 9 6 5 4 4 4 4 4 5 7 7 7 6 4 4 4 3 3 2 2 2 2 2 2 3 3 3 2 2 3 3 2 2 2 1 1 0 0
7 9 11 11 10 8 6 5 5 5 5 4 5 6 7 6 7 6 5 4 4 4 4 4 3 2 1 1 0 2 3 2 1 2 2 2 2 2 2 1 1 1 1
8 10 10 10 9 9 8 6 4 4 3 4 3 4 5 6 6 6 6 5 5 4 4 3 3 2 1 1 1 1 3 4 2 2 2 2 3 3 3 4 3 2 2
7 9 9 10 9 9 8 5 4 3 2 3 4 4 4 5 6 5 5 4 4 4 3 3 3 3 2 1 1 2 1 3 3 2 2 3 3 3 3 3 4 3 2
5 6 7 8 8 8 8 7 7 6 6 6 4 3 3 4 4 5 5 5 4 4 4 3 3 2 3 2 1 1 2 2 2 3 2 1 3 3 3 3 3 3 3
3 3 4 5 5 6 7 8 8 7 5 3 3 4 4 3 3 4 4 4 4 3 3 3 3 2 2 2 2 1 1 1 3 3 4 2 1 1 2 2 2 2 3
2 2 3 4 5 5 7 7 8 8 6 6 6 5 4 3 2 3 4 4 3 3 3 3 2 2 1 1 1 2 2 2 2 3 4 3 2 1 1 1 2 2 2
Wind_Direction
157 155 151 146 140 136 134 132 125 121 121 125 128 127 127 124 121 118 115 113 112 111 110 108 105 101 97 93 88 84 81 79 76 74 71 72 73 73 72 68 63 55 63
145 151 149 146 142 139 137 132 127 123 123 126 128 128 127 124 121 119 117 116 115 114 112 109 106 102 98 96 93 90 87 82 79 74 67 63 69 71 70 67 65 63 64
143 148 147 145 143 140 137 134 130 128 127 126 126 126 125 123 122 121 119 118 117 116 113 109 105 101 97 96 97 96 92 87 82 75 65 49 61 71 70 66 62 61 63
142 144 145 145 143 142 140 138 134 132 132 130 127 126 124 123 123 122 120 119 118 116 114 110 105 101 98 98 101 102 97 91 83 74 57 44 47 70 68 67 63 61 62
138 139 146 144 144 143 142 140 137 135 134 132 129 126 125 124 123 122 121 119 118 118 116 112 108 102 99 99 102 105 102 94 84 72 56 46 43 73 70 67 64 62 61
135 138 145 143 145 145 145 141 139 138 136 134 131 128 127 126 124 123 122 121 121 121 119 116 110 104 100 100 102 105 105 96 82 67 54 41 42 74 73 70 67 64 60
137 138 143 144 147 148 148 144 142 140 140 138 135 132 130 128 127 126 125 125 125 124 122 119 113 105 101 100 101 103 102 99 88 73 54 33 56 75 73 71 69 66 62
140 139 143 146 148 150 150 146 144 143 143 142 139 137 134 132 132 132 131 130 129 127 125 121 115 107 101 99 101 103 103 98 90 78 56 20 60 75 75 72 69 65 62
140 137 137 141 146 150 149 147 146 145 145 145 143 140 137 137 138 137 136 135 132 129 126 122 116 108 100 94 94 97 100 98 95 74 13 331 14 73 78 74 69 66 63
141 140 136 135 138 142 146 148 146 144 145 145 140 135 136 138 140 140 138 136 135 133 130 125 117 104 89 79 77 83 96 94 88 5 312 282 275 68 86 85 75 71 69
153 147 142 140 140 140 144 150 146 145 145 143 137 136 131 127 129 133 137 136 137 138 137 131 117 96 74 57 54 63 80 91 70 294 278 279 273 259 246 207 146 95 87
165 159 152 149 147 146 150 140 140 138 140 135 135 136 128 127 130 133 146 147 145 142 139 133 101 69 63 42 29 44 51 26 289 277 272 280 276 267 257 247 234 230 223
169 165 160 155 152 151 144 145 139 137 137 138 143 142 136 131 129 125 130 141 138 132 103 61 50 51 46 17 357 346 320 307 273 273 278 284 280 273 268 259 247 239 237
168 170 164 160 157 157 152 154 151 152 154 155 155 152 147 147 151 152 157 163 159 150 161 154 158 292 306 296 289 296 297 280 269 268 272 279 280 276 275 272 265 254 246
171 172 169 167 165 160 156 162 164 167 169 166 164 167 165 164 170 171 174 178 187 182 186 198 216 251 281 292 286 278 283 281 276 269 271 277 277 273 272 274 272 268 262
178 176 171 173 171 164 165 170 173 175 173 170 176 179 177 175 176 176 182 190 198 197 197 201 217 233 260 275 284 275 267 271 269 269 262 271 272 271 269 271 273 274 272
183 181 177 177 173 171 171 176 177 181 177 181 184 183 184 184 184 182 186 198 204 196 194 197 213 215 247 259 273 274 266 263 265 267 267 261 267 270 268 271 274 277 276
180 181 179 180 177 178 176 174 176 180 184 187 184 185 191 193 188 184 190 204 196 181 180 186 190 206 239 249 263 271 267 270 271 268 267 265 260 262 269 271 274 276 279
184 181 181 184 181 181 180 174 175 178 188 189 184 186 193 195 189 184 194 198 180 174 179 183 178 187 221 246 258 266 268 267 272 279 279 277 268 261 258 270 269 267 270
192 188 187 188 182 176 172 162 166 182 187 187 189 193 190 192 188 185 188 187 171 166 174 175 181 186 208 235 266 277 273 274 280 287 293 297 293 286 272 267 290 334 2
196 197 197 194 185 171 173 180 184 197 190 192 196 195 191 188 184 183 184 178 173 177 183 177 170 187 215 186 299 311 307 304 320 326 339 353 0 4 18 24 38 48 43
195 199 199 197 188 179 186 187 182 174 184 191 194 196 189 185 182 185 183 180 175 172 173 174 168 164 189 151 154 328 327 336 349 12 23 28 21 27 33 34 40 48 49
196 195 196 195 192 193 191 172 150 140 136 176 193 195 191 182 182 178 177 171 169 170 177 177 169 170 188 184 174 179 224 270 306 327 26 30 24 31 29 29 36 34 46
207 194 192 190 190 192 186 181 176 187 199 202 192 182 166 173 174 169 165 164 166 166 165 164 158 161 166 195 207 216 219 213 254 307 325 11 31 35 26 26 33 32 36
210 197 189 179 182 185 184 186 188 198 203 181 158 161 163 161 162 159 158 155 155 155 151 144 144 152 168 187 195 193 219 230 223 239 277 297 341 25 30 27 37 35 32
186 178 172 170 181 178 182 185 192 198 189 176 178 177 171 153 139 141 133 134 137 137 137 136 132 141 153 188 204 199 204 214 217 226 253 261 261 249 39 33 40 38 37